COSMOS 1275 DEB, 12746

Orbit data source: Space-Track

COSMOS 1275 DEB, 12746 is space debris in LEO originally from a launch on Thu, 04 Jun 1981 UTC launched from the Plesetsk Missile And Space Complex (PKMTR). Debris objects in space refer to the collection of defunct objects orbiting the Earth. Examples of debris include non-operational satellites, rocket bodies, and fragments generated from explosions, collisions, or faulty payload assembly.

Loading next visibility...
Identifier
12746, 1981-053CP
Orbit
LEO
Country
Flag of CISCIS
Related business
Manufacturer
Unknown
Mission
Spacecraft
Bus & Motor
Unknown
Mass
Unknown
Launch date (UTC)
1981-06-04 (45 years ago)
Launch vehicle
Unknown
Launch site
Plesetsk Missile And Space Complex (PKMTR)
Object type
Payload
Rocket body
Debris
Shape & HBR
Unknown shape, 0.2 m
Radar Cross Section
Medium (>0.1 m² and <1 m²)

Expand to show TLE details & history
Last TLE update: 2 days ago

TLE from 2 days ago
0 COSMOS 1275 DEB
1 12746U 81053CP  26171.39776472  .00002952  00000-0  11144-2 0  9990
2 12746  82.9362 150.3974 0032899 255.5477 104.2059 14.30790025287523
Epoch: 2026-06-20T09:32Z
TLE epoch observation values (Epoch: 2026-06-20T09:32:46.871Z)
Latitude
-0.00002°
Longitude
98.58913°
Altitude
797.929 km
Speed
7.452 km/s
True Right ascension
10h 01m 35s
True Declination
0° 00' 00"
Sunlit
Object was in daylight at epoch
Visualization orbit readout
Latitude
Unknown
Longitude
Unknown
Altitude
Unknown
Speed
Unknown
Apparent Right ascension
Unknown
Apparent Declination
Unknown
Sunlit
N/A
Visualization observer readout
Local Sidereal Time
22:51:18
Azimuth
Unknown
Elevation
Unknown
Doppler factor
Unknown
Orbital elements
Apogee altitude
809.733 km
Perigee altitude
762.594 km
Semi-major axis
7,164.301 km
Eccentricity
0.00329
Inclination
82.9362°
RAAN
150.3974°
Arg. of periapsis
255.5477°
True anomaly
104.571°
Mean anomaly
104.2059°
Eccentric anomaly
104.38848°
Mean motion
3.57917 °/min
Orbital period
100.58 mins
BSTAR
0.0011144
Loading maneuver chart data...
Computing Atmospheric mass density...

Documentation

Showing up to 5 results
|